USA 193 - Orbit

View from above orbital plane
View from above orbital plane
View from above satellite
View from above satellite

Ground track
Ground track

The orbit data is extracted from the following two-line orbital elements,

1 29651U 06057A   08052.01700749  .00286558  00000-0  31619-3 0    04
2 29651  58.4796  26.1000 0011038 100.0855 260.1493 16.08904727    04
Epoch (UTC): 21 February 2008 00:24:29
Eccentricity: 0.0011038
inclination: 58.4796°
perigee height: 242 km
apogee height: 257 km
right ascension of ascending node: 26.1000°
argument of perigee: 100.0855°
revolutions per day: 16.08904727
mean anomaly at epoch: 260.1493°
orbit number at epoch: 0

The dashed part of the orbit path shows where the satellite is in the earth's shadow,  

Developed and maintained by Chris Peat, Heavens-Above GmbH. Please read the updated FAQ before sending e-mail. Imprint. DLR